CZ-6A DEB

Satellite information

Favourite Embed

Satellite Type and Status

DEBRISIN ORBIT

Key statistics

Satellite CZ-6A DEB at a glance.

Uptime

494

Days in orbit

Revolutions

≈ 14.4

Per day

Orbit

LEO

Low Earth Orbit

Inclination

88.4

Latest

Satellite identification and parameters

Extended collection of information and parameters for CZ-6A DEB.

Object identification

Identified? True

Debris? True

Object name: CZ-6A DEB

International designator: 2024-140ABR

Object number (NORAD): 61801

Object ID (CCSDS): 61801

Country: PEOPLES REPUBLIC OF CHINA (PRC)

Current information (Y/N): Y

RCS size: SMALL

Orbital parameters

Period: 99.921 minutes

Inclination: 88.4415 deg

SMA: 7132.863 km

Apoapsis: 843.676 km

Periapsis: 665.779 km

RAAN: 261.2173 deg

Eccentricy: 0.01247023

Argument of periapsis: 295.4501 deg

Mean anomaly: 63.384 deg

Mean motion: 14.41142558 rev/day

Mean motion (dot): 0.00011535 rev/day2

B* drag term: 0.0032558986 1/REarth

Two-line elements (TLE)

Creation date: Dec. 11, 2025, 10:54 a.m.

Reference frame: TEME

Reference center: EARTH

Epoch: Dec. 11, 2025, 4:36 a.m. UTC

TLE line 0: 0 CZ-6A DEB

TLE line 1: 1 61801U 24140ABR 25345.19177141 .00011535 00000-0 32559-2 0 9998

TLE line 2: 2 61801 88.4415 261.2173 0124702 295.4501 63.3840 14.41142558 66654

Live tracking on map

Real-time ground track for satellite CZ-6A DEB.

In-orbit conjunctions

A list of the most updated potential collisions computed for object CZ-6A DEB.

Target Orbit TCA Probability of collision Miss distance Type
FENGYUN 1C DEB SSO 2025-05-13 22:45:16 0.0001095751 111.0 (m) DEBRIS
DELTA 1 DEB SSO 2025-02-27 00:13:33 0.0001062076 618.0 (m) DEBRIS
COSMOS 2251 DEB LEO 2025-02-21 06:16:48 0.0001088458 276.0 (m) DEBRIS
METEOR 2-1 LEO 2025-02-02 00:00:06 0.0001812863 809.0 (m) PAYLOAD
COSMOS 1954 LEO 2025-01-06 23:34:21 0.0004437588 713.0 (m) PAYLOAD

Associated space launch

18 Low Earth Orbit communication satellites with Ku, Q and V band payloads for the G60 constellation operated by Shanghai Spacecom Satellite Technology (SSST) with funding backed by the Shanghai local government. Initial constellation will consist of 1296 satellites by 2027 with long term plans to expand it to 12000 satellites.

CZ-6A DEB was lifted into orbit during the mission ‘Long March 6A | G60 Polar Group 01’, on board a Long March 6A space rocket.

The launch took place on Aug. 6, 2024, 6:42 a.m. from Launch Complex 9A.

For more information about the launch, click the button.

Launch to space Long March 6A | G60 Polar Group 01
Long March 6A | G60 Polar Group 01

Agency: N/A

Status: Launch Successful

Launch date: Aug. 6, 2024, 6:42 a.m. UTC

Rocket: Long March 6A

Launch pad: Launch Complex 9A

Location: Taiyuan Satellite Launch Center, People's Republic of China

...

Latest news about this satellite

News about space launch
Brightness of first Chinese broadband constellation satellites alarms astronomers

The first satellites of a Chinese broadband constellation are significantly brighter than those of Western systems, posing a new challenge for astronomers.

News about space launch
Chinese rocket stage breaks up into cloud of more than 700 pieces of space debris

HELSINKI — A Chinese Long March 6A rocket’s upper stage has fragmented into a cloud of over 700 pieces of space debris, adding to concerns about long-term orbital safety. China […]

News about space launch
China's Thousand Sails Megaconstellation Kicks Off with Dangerous Debris Field

China's Thousand Sails Megaconstellation Kicks Off with Dangerous Debris Field


Newsletter sign-up

Weekly statistics, charts and insights to help you stay on top of the space industry.